Regional Weather Roundup
Issued by NWS

Home | Current Version | Previous Version | Graphics & Text | Print | Product List | Glossary On
Versions: 1 2 3 4 5 6 7 8 9 10 11 12 13 14 15 16 17 18 19 20 21 22 23 24 25 26 27 28 29 30 31 32 33 34 35 36 37 38 39 40 41 42 43 44 45 46 47 48 49 50
000
ASUS43 KBIS 180920
RWRND

NORTH DAKOTA REGIONAL WEATHER ROUNDUP
NATIONAL WEATHER SERVICE BISMARCK ND
400 AM CDT FRI APR 18 2014

NOTE: "FAIR" INDICATES FEW OR NO CLOUDS BELOW 12,000 FEET WITH NO
SIGNIFICANT WEATHER AND/OR OBSTRUCTIONS TO VISIBILITY.


NDZ001>003-009>011-017-181000-
NORTHWEST NORTH DAKOTA

CITY           SKY/WX    TMP DP  RH WIND       PRES   REMARKS
WILLISTON      LGT RAIN  37  29  72 SE8       29.94F
MINOT          PTCLDY    31  21  66 E12       30.09F
MINOT AFB      CLEAR     30  23  75 SE16      30.09F WCI  19
$$

NDZ018>021-031>035-040>046-181000-
SOUTHWEST NORTH DAKOTA

CITY           SKY/WX    TMP DP  RH WIND       PRES   REMARKS
BISMARCK       CLEAR     34  21  59 E14       30.09F
DICKINSON      CLOUDY    33  22  63 SE17      29.92F
GARRISON         N/A     34  23  64 SE14      30.06F
HETTINGER ARPT CLOUDY    33  23  66 E16       29.93F
$$

NDZ004>008-012>016-024-026-027-054-181000-
NORTHEAST NORTH DAKOTA

CITY           SKY/WX    TMP DP  RH WIND       PRES   REMARKS
GRAND FORKS    MOCLDY    30  20  66 SE6       30.28S
GRND FRKS AFB  MOCLDY    28  20  71 E2        30.28S
DEVILS LAKE    CLOUDY    32  16  51 SE14      30.21F
$$

NDZ022-023-025-028>030-036>039-047>053-181000-
SOUTHEAST NORTH DAKOTA

CITY           SKY/WX    TMP DP  RH WIND       PRES   REMARKS
FARGO          CLOUDY    33  23  66 E5        30.27F
JAMESTOWN      CLOUDY    32  21  64 E13       30.19F
$$




USA.gov is the U.S. government's official web portal to all federal, state and local government web resources and services.